Location: Bonny Doon Airfield
(37.0704°N, 122.1252°W)
Time: 09:53:32
(UTC-07:00)

Hubble Space Telescope - Pass Details

Date: 07 October 2017
Orbit: 537 x 541 km, 28.5° (Epoch: 17 October)

Event Time Altitude Azimuth Distance (km) Brightness Sun altitude
Exits shadow 05:47:25 21° 210° (SSW) 1,249 2.3 -17.1°
Maximum altitude 05:48:32 23° 186° (S) 1,160 2.3 -16.9°
Drops below altitude 10° 05:51:51 10° 133° (SE) 1,787 4.0 -16.3°
Sets 05:54:26 0° 118° (ESE) 2,677 5.3 -15.8°
